Location: Agus-us
(14.2247°N, 120.8593°E)
Time: 08:55:03
(UTC+00:00)

Cosmos 836 Rocket - Pass Details

Date: 13 December 2025
Orbit: 752 x 774 km, 74.1° (Epoch: 15 January)

Event Time Altitude Azimuth Distance (km) Brightness Sun altitude
Rises 21:39:55 0° 197° (SSW) 3,192 7.8 -8.1°
Reaches altitude 10° 21:42:17 10° 200° (SSW) 2,267 7.0 -7.5°
Maximum altitude 21:47:23 70° 283° (WNW) 795 4.4 -6.4°
Drops below altitude 10° 21:52:30 10° 7° (N) 2,270 6.8 -5.2°
Sets 21:54:53 0° 10° (N) 3,197 7.6 -4.7°
